Location: Caltech
(34.1382°N, 118.1253°W)
Time: 22:41:41
(UTC-08:00)

Cosmos 44 Rocket - Visible Passes

Search period start: 18 January 2017 00:00
Search period end: 28 January 2017 00:00
Orbit: 649 x 742 km, 65.1° (Epoch: 18 January)

Date Brightness Start Highest point End Pass type
(mag) Time Alt. Az. Time Alt. Az. Time Alt. Az.
18 Jan 3.4 17:30:57 10° SSW 17:36:05 78° ESE 17:41:10 10° NNE visible
18 Jan 6.0 19:15:36 10° WNW 19:18:10 14° NW 19:20:42 10° NNW visible
19 Jan 5.0 18:13:33 10° WSW 18:18:06 31° NW 18:22:36 10° N visible
20 Jan 6.2 18:59:37 10° NW 19:00:38 11° NW 19:01:39 10° NNW visible
21 Jan 5.4 17:56:20 10° WSW 18:00:28 24° NW 18:04:35 10° N visible
23 Jan 5.7 17:39:16 10° W 17:42:52 19° NW 17:46:27 10° N visible
